This demonstration page uses our WeatherBlox Daily Observations layout. Learn more.

41.55636, -103.73856

Hourly Observations for August 17, 2018

Temp ( °F °C ) Dew Point ( °F °C ) Humidity (%) Winds ( mph kmh ) Pressure ( in mb ) Visibility ( mi km ) Precip ( " mm )
1:56 am 01:56 Clear 62 16.5 52 10.9 70 70 SSW 5 7 30.09 1019 10 16.09344 0 0
2:58 am 02:58 Clear 61 16 51 10.5 70 70 S 3 6 30.09 1019 10 16.09344 0 0
3:58 am 03:58 Clear 56 13.2 50 10.2 82 82 E 5 7 30.12 1020 10 16.09344 0 0
4:58 am 04:58 Clear 57 13.9 51 10.6 81 81 Calm 30.12 1020 10 16.09344 0 0
5:58 am 05:58 Clear 55 13 51 10.3 84 84 Calm 30.12 1020 10 16.09344 0 0
6:58 am 06:58 Sunny 56 13.5 51 10.8 84 84 Calm 30.15 1021 10 16.09344 0 0
7:58 am 07:58 Sunny 63 17.3 54 12.4 73 73 Calm 30.06 1018 10 16.09344 0 0
8:58 am 08:58 Sunny 70 21.1 52 11.2 53 53 S 9 15 29.97 1015 10 16.09344 0 0
9:58 am 09:58 Sunny 74 23.1 51 10.7 46 46 S 13 20 29.94 1014 10 16.09344 0 0
10:58 am 10:58 Sunny 76 24.5 51 10.6 42 42 SSE 15 24 29.91 1013 10 16.09344 0 0
11:58 am 11:58 Sunny 78 25.4 53 11.4 42 42 S 12 19 29.91 1013 10 16.09344 0 0
12:58 pm 12:58 Sunny 78 25.6 53 11.6 42 42 S 10 17 29.91 1013 10 16.09344 0 0
1:58 pm 13:58 Sunny 82 27.7 56 13.5 42 42 SSE 15 24 29.83 1010 10 16.09344 0 0
2:58 pm 14:58 Sunny 83 28.1 54 12.1 37 37 SSE 12 19 30.06 1018 10 16.09344 0 0
3:58 pm 15:58 Sunny 84 28.8 55 12.5 37 37 SE 14 22 30.06 1018 10 16.09344 0 0
4:58 pm 16:58 Sunny 83 28.4 56 13.1 39 39 SE 14 22 30.03 1017 10 16.09344 0 0
5:58 pm 17:58 Sunny 81 27 55 12.7 41 41 SE 12 19 30.06 1018 10 16.09344 0 0
6:58 pm 18:58 Mostly Cloudy with Nearby Thunderstorms 72 22.3 56 13.2 56 56 SSW 18 30 30.06 1018 10 16.09344 0 0
7:58 pm 19:58 Mostly Cloudy with Rain 67 19.2 58 14.6 75 75 WNW 6 9 30.12 1020 10 16.09344 0.03 0.762
8:58 pm 20:58 Mostly Clear 65 18.3 57 13.9 76 76 S 5 7 30.06 1018 10 16.09344 0.02 0.508
9:58 pm 21:58 Clear 64 17.5 54 12.3 72 72 SW 7 11 30.06 1018 10 16.09344 0 0
10:58 pm 22:58 Clear 61 15.9 52 11.3 74 74 SW 8 13 30.09 1019 10 16.09344 0 0
11:58 pm 23:58 Clear 62 16.5 55 13 80 80 SSW 14 22 30.09 1019 10 16.09344 0 0

Powered by AerisWeather